Phuket, Thailand

3:54 AM +07 on October 24, 2017 (GMT +0700)
Phuket International

Weather History for VTSP - October, 2017

Change the Weather History Date:

Thursday, October 12, 2017

  Actual Average Record
Temperature  
Mean Temperature 78 °F -  
Max Temperature 82 °F 87 °F 93 °F (1997)
Min Temperature 74 °F 76 °F 73 °F (1999)
Cooling Degree Days 13    
Growing Degree Days 28 (Base 50)    
Moisture  
Dew Point 75 °F    
Average Humidity 90    
Maximum Humidity 96    
Minimum Humidity 79    
Precipitation  
Precipitation 1.89 in 0.38 in - ()
Sea Level Pressure  
Sea Level Pressure 29.81 in    
Wind  
Wind Speed 3 mph ()    
Max Wind Speed 21 mph    
Max Gust Speed 29 mph    
Visibility 4.3 miles    
Events Rain , Thunderstorm    
Averages and records for this station are not official NWS values.
T = Trace of Precipitation, MM = Missing Value Source: Averaged Metar Reports

Daily Weather History Graph

Daily Weather History Graph

Search for Another Location

Airport or City:

Trip Planner

Search our weather history database for the weather conditions in past years. The results will help you decide how hot, cold, wet, or windy it might be!

Date:

Astronomy

Oct. 12, 2017 Rise Set
Actual Time 6:14 AM +07 6:12 PM +07
Civil Twilight 5:53 AM +07 6:33 PM +07
Nautical Twilight 5:28 AM +07 6:57 PM +07
Astronomical Twilight 5:04 AM +07 7:21 PM +07
Moon No Moon Rise 12:17 PM +07 (10/12)
Length of Visible Light 12h 40m
Length of Day
11h 58m
Waning Gibbous, 54% of the Moon is Illuminated
Oct 12
Waning Gibbous
Oct 12
Last Quarter
Oct 20
New
Oct 28
First Quarter
Nov 4
Full

Hourly Weather History & Observations

Time (+07) Temp. Heat Index Dew Point Humidity Pressure Visibility Wind Dir Wind Speed Gust Speed Precip Events Conditions
12:00 AM 78.8 °F - 75.2 °F 89% 29.86 in 5.0 mi Variable 2.3 mph - N/A   Mostly Cloudy
12:30 AM 80.6 °F 86.2 °F 75.2 °F 84% 29.83 in 5.0 mi Variable 2.3 mph - N/A   Mostly Cloudy
1:00 AM 80 °F - 76 °F 82% 29.72 in 5 mi Calm Calm - -   Mist
1:00 AM 80.6 °F 86.2 °F 75.2 °F 84% 29.83 in 5.0 mi NNW 6.9 mph - N/A   Mostly Cloudy
1:30 AM 78.8 °F - 75.2 °F 89% 29.83 in 5.0 mi Variable 2.3 mph - N/A   Mostly Cloudy
2:00 AM 78.8 °F - 75.2 °F 89% 29.80 in 5.0 mi Variable 2.3 mph - N/A   Mostly Cloudy
2:30 AM 78.8 °F - 75.2 °F 89% 29.80 in 4.3 mi Variable 2.3 mph - N/A Rain Light Rain
3:30 AM 77.0 °F - 75.2 °F 94% 29.80 in 1.9 mi WSW 8.1 mph - N/A Rain Heavy Rain
4:00 AM 80 °F - 76 °F 86% 29.72 in 3 mi Calm Calm - - Rain Light Rain
4:00 AM 77.0 °F - 75.2 °F 94% 29.80 in 3.1 mi WNW 5.8 mph - N/A Rain Rain
5:30 AM 78.8 °F - 75.2 °F 89% 29.80 in 1.9 mi WNW 4.6 mph - N/A Rain Heavy Rain
6:00 AM 77.0 °F - 73.4 °F 89% 29.80 in 3.1 mi WNW 6.9 mph - N/A Rain Rain
6:30 AM 77.0 °F - 73.4 °F 89% 29.83 in 4.3 mi Variable 2.3 mph - N/A   Mostly Cloudy
7:00 AM 78 °F - 77 °F 95% 29.73 in 5 mi Calm Calm - - Rain Light Rain
7:00 AM 77.0 °F - 75.2 °F 94% 29.83 in 5.0 mi Variable 1.2 mph - N/A   Mostly Cloudy
7:30 AM 78.8 °F - 75.2 °F 89% 29.86 in 5.0 mi Variable 2.3 mph - N/A   Mostly Cloudy
8:00 AM 78.8 °F - 77.0 °F 94% 29.86 in 5.0 mi Variable 2.3 mph - N/A   Mostly Cloudy
8:30 AM 77.0 °F - 73.4 °F 89% 29.86 in 2.5 mi Variable 6.9 mph - N/A Rain Rain
9:00 AM 77.0 °F - 73.4 °F 89% 29.86 in 4.3 mi Variable 2.3 mph - N/A Rain Light Rain
9:30 AM 82.4 °F 90.9 °F 77.0 °F 84% 29.86 in 5.0 mi Variable 2.3 mph - N/A Rain Rain
10:00 AM 79 °F - 77 °F 93% 29.82 in 4 mi Calm Calm - - Thunderstorm Thunderstorm
10:00 AM 78.8 °F - 73.4 °F 83% 29.89 in 1.9 mi NW 11.5 mph - N/A Rain , Thunderstorm Thunderstorms and Rain
10:30 AM 77.0 °F - 75.2 °F 94% 29.89 in 0.6 mi NW 11.5 mph 28.8 mph N/A Rain , Thunderstorm Heavy Thunderstorms and Rain
11:00 AM 75.2 °F - 73.4 °F 94% 29.89 in 0.9 mi West 20.7 mph - N/A Rain Rain
11:30 AM 77.0 °F - 73.4 °F 89% 29.89 in 3.1 mi West 16.1 mph - N/A Rain Rain
12:00 PM 77.0 °F - 73.4 °F 89% 29.86 in 4.3 mi West 12.7 mph - N/A Rain Light Rain
12:30 PM 77.0 °F - 73.4 °F 89% 29.83 in 3.7 mi West 10.4 mph - N/A Rain Light Rain
1:00 PM 78 °F - 77 °F 96% 29.77 in 2 mi Calm Calm - - Rain Light Rain
1:00 PM 77.0 °F - 75.2 °F 94% 29.83 in 3.1 mi Variable 2.3 mph - N/A Rain Rain
1:30 PM 78.8 °F - 75.2 °F 89% 29.80 in 4.3 mi West 3.5 mph - N/A Rain Light Rain
2:00 PM 78.8 °F - 75.2 °F 89% 29.77 in 4.3 mi West 4.6 mph - N/A Rain Light Rain
2:30 PM 78.8 °F - 75.2 °F 89% 29.77 in 5.0 mi WNW 4.6 mph - N/A Rain Light Rain
3:00 PM 78.8 °F - 75.2 °F 89% 29.74 in 6.2 mi West 3.5 mph - N/A   Mostly Cloudy
3:30 PM 80.6 °F 86.2 °F 75.2 °F 84% 29.74 in 6.2 mi WNW 4.6 mph - N/A   Mostly Cloudy
4:00 PM 80 °F - 76 °F 82% 29.70 in 4 mi Calm Calm - -   Mist
4:00 PM 80.6 °F 86.2 °F 75.2 °F 84% 29.74 in 6.2 mi WNW 3.5 mph - N/A   Mostly Cloudy
4:30 PM 80.6 °F 85.4 °F 73.4 °F 79% 29.74 in 6.2 mi Variable 2.3 mph - N/A   Mostly Cloudy
5:00 PM 80.6 °F 86.2 °F 75.2 °F 84% 29.74 in 6.2 mi Calm Calm - N/A   Mostly Cloudy
5:30 PM 78.8 °F - 75.2 °F 89% 29.74 in 6.2 mi Variable 2.3 mph - N/A   Mostly Cloudy
6:00 PM 78.8 °F - 75.2 °F 89% 29.77 in 6.2 mi Calm Calm - N/A   Mostly Cloudy
6:30 PM 77.0 °F - 75.2 °F 94% 29.77 in 5.0 mi Calm Calm - N/A   Mostly Cloudy
7:00 PM 77 °F - 76 °F 95% 29.74 in 5 mi Calm Calm - -   Mist
7:00 PM 77.0 °F - 75.2 °F 94% 29.80 in 5.0 mi Calm Calm - N/A   Mostly Cloudy
7:30 PM 77.0 °F - 73.4 °F 89% 29.80 in 5.0 mi Calm Calm - N/A   Mostly Cloudy
8:00 PM 77.0 °F - 75.2 °F 94% 29.83 in 5.0 mi Variable 1.2 mph - N/A   Mostly Cloudy
8:30 PM 77.0 °F - 75.2 °F 94% 29.83 in 5.0 mi Calm Calm - N/A   Mostly Cloudy
9:00 PM 78.8 °F - 75.2 °F 89% 29.83 in 5.0 mi Variable 1.2 mph - N/A   Mostly Cloudy
9:30 PM 77.0 °F - 75.2 °F 94% 29.86 in 3.1 mi Calm Calm - N/A Rain Light Rain
10:00 PM 78 °F - 76 °F 94% 29.80 in 3 mi Calm Calm - - Rain Light Rain
10:30 PM 77.0 °F - 75.2 °F 94% 29.86 in 4.3 mi Calm Calm - N/A   Mostly Cloudy
11:00 PM 77.0 °F - 75.2 °F 94% 29.86 in 4.3 mi Variable 1.2 mph - N/A   Mostly Cloudy
11:30 PM 77.0 °F - 75.2 °F 94% 29.86 in 4.3 mi ENE 3.5 mph - N/A   Mostly Cloudy